Estación Meteorológica Peña el Pijo (Robertgarden) [ 07/12/20 05:45:48 CEST ]

Fecha Hora Presion(HPa) Temp (°C) Humedad % Rocio (°C) Viento ( m/s) Direccion Lluvia 1Hora(mm) Lluvia 24H(mm) LLuvia Total(mm)
2020-Feb-13 01:09:15 1011.900 - - - - N     39.88
2020-Feb-13 02:13:46 1011.900 - - - - N     39.88
2020-Feb-13 03:08:54 1011.700 - - - - N     39.88
2020-Feb-13 04:09:20 1011.000 - - - - N     39.88
2020-Feb-13 05:09:16 1011.000 - - - - N     39.88
2020-Feb-13 06:08:56 1011.000 - - - - N     39.88
2020-Feb-13 07:08:49 1011.300 - - - - N     39.88
2020-Feb-13 08:08:56 1011.800 - - - - N     39.88
2020-Feb-13 09:08:55 1011.900 - - - - N     39.88
2020-Feb-13 10:08:56 1012.200 - - - - N     39.88
2020-Feb-13 11:09:20 1013.200 - - - - N     39.88
2020-Feb-13 12:09:09 1013.600 - - - - N     39.88
2020-Feb-13 13:09:02 1013.200 - - - - N     39.88
2020-Feb-13 14:09:06 1012.700 - - - - N     39.88
2020-Feb-13 15:09:23 1011.800 - - - - N     39.88
2020-Feb-13 16:09:04 1012.000 - - - - N     39.88
2020-Feb-13 17:09:02 1012.000 - - - - N     39.88
2020-Feb-13 18:08:49 1012.400 - - - - N     39.88
2020-Feb-13 19:08:53 1013.300 - - - - N     39.88
2020-Feb-13 20:09:18 1014.200 - - - - N     39.88
2020-Feb-13 21:09:05 1014.400 - - - - N     39.88
2020-Feb-13 22:09:30 1014.400 - - - - N     39.88
2020-Feb-13 23:09:09 1014.200 - - - - N     39.88

Temperatura Máxima:    Temperatura Mínima:
Presión Máxima:1014.400 Hpa    Presión Mínima:1011.000 Hpa


Volver